Location: Cz?stochówka
(50.8142°N, 19.0915°E)
Time: 09:57:15
(UTC+00:00)

Cosmos 2154 Rocket - Pass Details

Date: 13 January 2026
Orbit: 965 x 997 km, 82.9° (Epoch: 17 February)

Event Time Altitude Azimuth Distance (km) Brightness Sun altitude
Rises 05:27:26 0° 207° (SSW) 3,698 7.0 -11.2°
Reaches altitude 10° 05:30:03 10° 213° (SSW) 2,750 6.2 -10.8°
Maximum altitude 05:36:08 49° 287° (WNW) 1,261 4.2 -9.9°
Drops below altitude 10° 05:42:14 10° 2° (N) 2,747 6.2 -9.0°
Sets 05:44:52 0° 8° (N) 3,694 6.9 -8.6°
